Hourly Data Report for October 22, 2015

All times are specified in Local Standard Time (LST). Add 1 hour to adjust for Daylight Saving Time where and when it is observed.

BATHURST A
NEW BRUNSWICK

47°37'47.000" N
65°44'20.000" W
58.80 m
8100505
71574
ZBF

Download Data

Hourly Data (October 2015)
Hourly Data Report for October 22, 2015
Temp Definition
°C
Dew Point Temp Definition
°C
Rel Hum Definition
%
Wind Dir Definition
10's deg

Wind Spd Definition
km/h
Visibility Definition
km
Stn Press Definition
kPa
Hmdx Definition


Wind Chill Definition


Weather Definition


TIME
00:00 Legend Double Dagger -1.5 -4.7 79 18 3 24.1 102.09   -3 LegendNANA
01:00 Legend Double Dagger -2.5 -5.0 83 20 4 24.1 102.13   -4 LegendNANA
02:00 Legend Double Dagger -1.7 -4.4 82 36 2 24.1 102.12   -2 Mostly Cloudy
03:00 Legend Double Dagger -2.0 -4.4 84 36 1 24.1 102.07   -2 LegendNANA
04:00 Legend Double Dagger -2.2 -4.1 87 36 3 24.1 102.04   -3 LegendNANA
05:00 Legend Double Dagger -1.8 -3.8 86 36 2 24.1 102.07   -3 Mostly Cloudy
06:00 Legend Double Dagger -1.3 -3.7 84 36 3 24.1 102.00   -2 LegendNANA
07:00 Legend Double Dagger -1.0 -2.9 87 21 4 24.1 101.99   -2 LegendNANA
08:00 Legend Double Dagger -0.3 -2.5 85 22 5 24.1 101.96   -2 Cloudy
09:00 Legend Double Dagger 1.1 -2.5 77 12 4 24.1 101.82     LegendNANA
10:00 Legend Double Dagger 1.0 -1.7 82 22 5 12.9 101.77     Rain,Snow,Ice Pellets
11:00 Legend Double Dagger 0.7 -0.3 93 16 8 12.9 101.63     Rain
12:00 Legend Double Dagger 0.9 0.0 94 15 8 24.1 101.45     LegendNANA
13:00 Legend Double Dagger 1.4 0.8 96 15 4 16.1 101.31     Rain
14:00 Legend Double Dagger 2.0 1.4 96 14 7 16.1 101.14     Rain
15:00 Legend Double Dagger 2.3 1.7 96 36 2 16.1 100.99     Rain
16:00 Legend Double Dagger 2.6 2.0 96 18 5 16.1 100.83     Rain
17:00 Legend Double Dagger 2.8 2.2 96 21 5 24.1 100.69     Cloudy
18:00 Legend Double Dagger 2.8 2.2 96 19 9 12.9 100.54     Drizzle
19:00 Legend Double Dagger 3.1 2.5 96 20 10 11.3 100.44     Drizzle
20:00 Legend Double Dagger 3.7 3.1 96 21 10 11.3 100.34     Cloudy
21:00 Legend Double Dagger 4.3 3.9 97 19 9 8.1 100.28     Drizzle,Fog
22:00 Legend Double Dagger 4.5 4.1 97 21 5 9.7 100.20     Fog
23:00 Legend Double Dagger 5.0 4.4 96 19 5 8.1 100.25     Fog

Notes on Data Quality.

Legend

  • E = Estimated
  • M = Missing
  • NA = Not Available
  • ‡ = Partner data that is not subject to review by the National Climate Archives
Date modified: